You are here:

home

Questo sito é stato creato esclusivamente per valorizzare il lavoro svolto dall' intero
155° Gruppo E.T.S. del' Aeronautica Militare e non ha nessun fine commerciale ne di lucro. 
Pertanto, l' utilizzo delle foto é consentito solo per uso PRIVATO.

 

 
In alto

LIMS - Piacenza, San Damiano

[source: ADDS]
METAR
LIMS 271755Z 12006KT CAVOK 12/09 Q1010 RMK FEW FEW100 VIS MIN 9999 WIND THR30 08005KT BLU =
TAF
TAF LIMS 271700Z 2718/2803 13013KT CAVOK TEMPO 2721/2803 28005KT 5000 BR =
In alto
WEB MASTER
Paolo "paolopaso" Pasotti
______________________________________
Last Update: 25/02/2011
_____________________________________________________________________________________________________________
© 2010 / 2011 - Tutti i diritti riservati
 
 
In alto